sat.trackr.live / text

‹ back to catalog

KUIPER-00075

NORAD 64822 · 2025-151G

PAYLOAD ACTIVE UNKNOWN

§ Identity

Operator
Country
US
Launch date
2025-07-16
Launch site
AFETR
Launch vehicle
Mass (kg)
RCS (m²)

External: N2YO · Heavens-Above · Gunter

§ Orbital elements

Epoch: 2026-05-25T05:07:38.874432Z

Period
93.27 min
Inclination
51.8678°
Eccentricity
0.0003205
Mean motion
15.43887504 rev/d
Perigee alt
432.5 km
Apogee alt
436.8 km
Semi-major
6,812.8 km
B*
5.2841e-4
RAAN
208.6905°
Arg perigee
194.8601°
Mean anomaly
165.2295°
Rev number
4,821

§ Raw data

KUIPER-000751 64822U 25151G   26145.21364438  .00024053  00000+0  52841-3 0  99912 64822  51.8678 208.6905 0003205 194.8601 165.2295 15.43887504 48218

JSON: /api/v1/satellites/64822 · /tle

For live sub-satellite position, see the globe view (requires WebGL).

§ Visibility from observer

Set your observer location to see the next 7 days of passes ≥ 10°. The values pass through the URL so the page stays shareable.

No JS? Fill the form by hand. The geolocation button needs JavaScript.